Terminal Aerodrome Forecast
Issued by NWS Chicago, IL

Home | Current Version | Previous Version | Text Only | Print | Product List | Glossary Off
Versions: 1 2 3 4 5 6 7 8 9 10 11 12 13 14 15 16 17 18 19 20 21 22 23 24 25 26 27

284
FTUS43 KLOT 031137
TAFRFD
TAF
KRFD 031137Z 0312/0412 28006KT P6SM OVC025
     FM031500 29006KT P6SM OVC035
     FM040000 16003KT P6SM BKN040 BKN250
     FM040900 15005KT 5SM -SN OVC050=

USA.gov is the U.S. government's official web portal to all federal, state and local government web resources and services.